Regional Weather Roundup
Issued by NWS

Home | Current Version | Previous Version | Graphics & Text | Print | Product List | Glossary Off
Versions: 1 2 3 4 5 6 7 8 9 10 11 12 13 14 15 16 17 18 19 20 21 22 23 24 25 26 27 28 29 30 31 32 33 34 35 36 37 38 39 40 41 42 43 44 45 46 47 48 49 50

000
ASUS43 KDMX 281708
RWRIA

WEATHER ROUNDUP FOR IOWA
NATIONAL WEATHER SERVICE DES MOINES IA
1200 PM CDT THU JUL 28 2016

NOTE: "FAIR" INDICATES FEW OR NO CLOUDS BELOW 12,000 FEET WITH NO
SIGNIFICANT WEATHER AND/OR OBSTRUCTIONS TO VISIBILITY.

* - THESE STATIONS ARE NOT NWS STATIONS...THUS NOT UNDER NWS
QUALITY CONTROL.  THEY ALSO DO NOT REPORT WEATHER SUCH
AS PRECIPITATION OR FOG.

IAZ001>003-012>014-020>022-031>034-043>046-281800-
   NORTHWEST IOWA

CITY           SKY/WX    TMP DP  RH WIND       PRES   REMARKS
CARROLL *      MOSUNNY   77  68  73 N10       30.01F
CHEROKEE *     MOSUNNY   74  65  71 N9        30.03F
DENISON *      MOSUNNY   77  66  69 N7G14     30.00F
LE MARS *      MOSUNNY   77  63  61 N8G15     30.05S
SHELDON *      PTSUNNY   72  64  78 N9        30.04F
SIOUX CITY     SUNNY     79  61  53 NW13G18   30.05R HX  80
SPENCER        CLOUDY    72  61  68 N10       30.05S
STORM LAKE *     N/A     72  64  78 N8        30.04F
$$

IAZ055>058-069>071-079>083-090>094-281800-
   SOUTHWEST IOWA

CITY           SKY/WX    TMP DP  RH WIND       PRES   REMARKS
ATLANTIC *     SUNNY     79  66  65 N10       30.01F HX  81
CRESTON *      SUNNY     81  64  57 N10G16    30.02S HX  82
HARLAN  *      SUNNY     77  66  69 N8        30.05S
LAMONI         SUNNY     80  68  66 N8        29.98F HX  83
SHENANDOAH *   MOSUNNY   81  72  74 VRB6      30.01S HX  84
$$

IAZ047>049-059>061-072>074-084-281800-
   CENTRAL IOWA

CITY           SKY/WX    TMP DP  RH WIND       PRES   REMARKS
AMES           CLOUDY    72  66  81 N13       30.00F
ANKENY *         N/A    N/A N/A N/A MISG        N/A
BOONE *        CLOUDY    72  64  78 N13       30.00F
CHARITON *       N/A    N/A N/A N/A MISG        N/A
DES MOINES     MOSUNNY   77  65  66 N12       29.98F
GRINNELL*      CLOUDY    72  64  77 NW13G18   29.99S
KNOXVILLE *    CLOUDY    73  64  73 N10G20    29.98R
MARSHALLTOWN   PTSUNNY   75  66  73 NW12      29.98F
NEWTON *       CLOUDY    72  66  83 N16       29.98F
PELLA *        PTSUNNY   75  65  70 N10       29.99F
PERRY *        CLOUDY    73  67  81 N12G18    30.01S
$$

IAZ004>006-015-016-023>025-035-036-281800-
   NORTH CENTRAL IOWA

CITY           SKY/WX    TMP DP  RH WIND       PRES   REMARKS
ALGONA *       CLOUDY    68  64  88 VRB7      30.04S
ESTHERVILLE    CLOUDY    68  63  84 N10       30.05S
FORT DODGE *   CLOUDY    66  63  88 N7        30.03F
MASON CITY     LGT RAIN  69  64  84 N12       30.02F
FOREST CITY *  CLOUDY    68  63  83 N12       30.02S
IOWA FALLS *   CLOUDY    74  65  71 NW14      30.01S
$$

IAZ007>011-017>019-026>030-037>042-050>054-066-281800-
   NORTHEAST IOWA

CITY           SKY/WX    TMP DP  RH WIND       PRES   REMARKS
CEDAR RAPIDS   PTSUNNY   75  68  78 NW12      29.94F
CHARLES CITY * PTSUNNY   70  68  94 N9        29.99F
CLINTON *      PTSUNNY   82  72  71 W6        29.90F HX  87
DECORAH *      CLOUDY    70  66  88 NW8G15    29.96S
DUBUQUE        CLOUDY    76  70  82 W12       29.93R
MONTICELLO *   PTSUNNY   77  70  78 VRB5      29.93S
OELWEIN *      CLOUDY    72  68  88 N12G18    29.97R
WATERLOO       CLOUDY    74  65  73 NW14      29.95F
$$

IAZ064-065-067-068-078-281800-
   EAST CENTRAL IOWA

CITY           SKY/WX    TMP DP  RH WIND       PRES   REMARKS
DAVENPORT      SUNNY     82  72  71 W5        29.91S HX  87
IOWA CITY      CLOUDY    75  66  73 NW12      29.96R
MT. PLEASANT * PTSUNNY   82  71  70 NW9       29.94R HX  86
MUSCATINE *    MOSUNNY   81  68  65 W14       29.93R HX  83
QUAD CITIES    PTSUNNY   85  69  58 W7        29.89F HX  89
$$

IAZ062-063-075>077-085>089-095>099-281800-
   SOUTHEAST IOWA

CITY           SKY/WX    TMP DP  RH WIND       PRES   REMARKS
BURLINGTON     MOSUNNY   82  73  74 NW10      29.92S HX  87
KEOKUK *       PTSUNNY   81  72  74 NW6       29.92S HX  84
CENTERVILLE *    N/A     81  68  65 N7        29.98F HX  83
OTTUMWA        MOSUNNY   78  67  68 NW18      29.95R HX  80
WASHINGTON *   PTSUNNY   77  68  73 NW13G18   29.97R
$$

ABBREVIATIONS USED IN REMARKS
   TC - TEMPERATURES IN CELSIUS
  WCI - WIND CHILL INDEX
   HX - HEAT INDEX
  VSB - VISIBILITY
$$





USA.gov is the U.S. government's official web portal to all federal, state and local government web resources and services.